Phoenix, AZ

4:23 PM MST on May 29, 2017 (GMT -0700)
Phoenix Sky Harbor International

Weather History for KPHX - April, 2014

Change the Weather History Date:

Saturday, April 12, 2014

  Actual Average Record
Temperature  
Mean Temperature 79 °F 72 °F  
Max Temperature 89 °F 84 °F 99 °F (1936)
Min Temperature 68 °F 59 °F 40 °F (1967)
Degree Days  
Heating Degree Days 0 1  
Month to date heating degree days 5 12  
Since 1 July heating degree days 546 926  
Cooling Degree Days 14 7  
Month to date cooling degree days 97 73  
Year to date cooling degree days 296 177  
Growing Degree Days 28 (Base 50)    
Moisture  
Dew Point 19 °F    
Average Humidity 13    
Maximum Humidity 20    
Minimum Humidity 5    
Precipitation  
Precipitation 0.00 in 0.01 in 0.27 in (1910)
Month to date precipitation 0.00 0.18  
Year to date precipitation 0.99 3.00  
Snow  
Snow 0.00 in - - ()
Month to date snowfall 0.0  
Year to date snowfall 0.0  
Since 1 July snowfall 0.0  
Snow Depth 0.00 in    
Sea Level Pressure  
Sea Level Pressure 29.68 in    
Wind  
Wind Speed 8 mph (South)    
Max Wind Speed 21 mph    
Max Gust Speed 25 mph    
Visibility 10 miles    
Events      
T = Trace of Precipitation, MM = Missing Value Source: NWS Daily Summary

Daily Weather History Graph

Daily Weather History Graph

Search for Another Location

Airport or City:

Trip Planner

Search our weather history database for the weather conditions in past years. The results will help you decide how hot, cold, wet, or windy it might be!

Date:

Astronomy

Apr. 12, 2014 Rise Set
Actual Time 6:01 AM MST 6:56 PM MST
Civil Twilight 5:35 AM MST 7:22 PM MST
Nautical Twilight 5:05 AM MST 7:52 PM MST
Astronomical Twilight 4:35 AM MST 8:23 PM MST
Moon 4:45 PM MST (4/12) 4:22 AM MST (4/12)
Length of Visible Light 13h 46m
Length of Day
12h 55m
Waxing Gibbous, 93% of the Moon is Illuminated
Apr 12
Waxing Gibbous
Apr 15
Full
Apr 22
Last Quarter
Apr 28
New
May 6
First Quarter

Hourly Weather History & Observations

Time (MST) Temp. Dew Point Humidity Pressure Visibility Wind Dir Wind Speed Gust Speed Precip Events Conditions
12:51 AM 77.0 °F 19.0 °F 11% 29.72 in 10.0 mi East 5.8 mph - N/A   Mostly Cloudy
1:51 AM 75.9 °F 21.0 °F 13% 29.72 in 10.0 mi ENE 8.1 mph - N/A   Mostly Cloudy
2:51 AM 73.0 °F 23.0 °F 15% 29.71 in 10.0 mi East 6.9 mph - N/A   Mostly Cloudy
3:51 AM 71.1 °F 25.0 °F 18% 29.70 in 10.0 mi East 8.1 mph - N/A   Mostly Cloudy
4:51 AM 70.0 °F 26.1 °F 19% 29.70 in 10.0 mi East 6.9 mph - N/A   Mostly Cloudy
5:51 AM 70.0 °F 23.0 °F 17% 29.69 in 10.0 mi ESE 6.9 mph - N/A   Mostly Cloudy
6:51 AM 69.1 °F 26.1 °F 20% 29.70 in 10.0 mi East 8.1 mph - N/A   Mostly Cloudy
7:51 AM 72.0 °F 24.1 °F 17% 29.71 in 10.0 mi East 8.1 mph - N/A   Mostly Cloudy
8:51 AM 79.0 °F 21.0 °F 12% 29.71 in 10.0 mi South 9.2 mph - N/A   Mostly Cloudy
9:51 AM 80.1 °F 19.0 °F 10% 29.72 in 10.0 mi South 16.1 mph - N/A   Mostly Cloudy
10:51 AM 82.9 °F 19.0 °F 9% 29.71 in 10.0 mi South 10.4 mph 17.3 mph N/A   Mostly Cloudy
11:51 AM 84.9 °F 19.9 °F 9% 29.68 in 10.0 mi Variable 4.6 mph - N/A   Mostly Cloudy
12:51 PM 84.0 °F 21.0 °F 10% 29.68 in 10.0 mi Variable 4.6 mph - N/A   Mostly Cloudy
1:51 PM 87.1 °F 18.0 °F 8% 29.66 in 10.0 mi West 11.5 mph 21.9 mph N/A   Mostly Cloudy
2:51 PM 87.1 °F 10.9 °F 6% 29.63 in 10.0 mi SW 13.8 mph 21.9 mph N/A   Mostly Cloudy
3:51 PM 88.0 °F 10.0 °F 5% 29.62 in 10.0 mi West 10.4 mph - N/A   Mostly Cloudy
4:51 PM 87.1 °F 16.0 °F 7% 29.61 in 10.0 mi West 10.4 mph 20.7 mph N/A   Partly Cloudy
5:51 PM 84.9 °F 10.0 °F 6% 29.61 in 10.0 mi WSW 12.7 mph - N/A   Partly Cloudy
6:51 PM 82.9 °F 9.0 °F 6% 29.62 in 10.0 mi WSW 13.8 mph - N/A   Partly Cloudy
7:51 PM 81.0 °F 10.0 °F 7% 29.63 in 10.0 mi WSW 6.9 mph - N/A   Partly Cloudy
8:51 PM 79.0 °F 14.0 °F 9% 29.65 in 10.0 mi WSW 4.6 mph - N/A   Partly Cloudy
9:51 PM 75.9 °F 17.1 °F 11% 29.68 in 10.0 mi Calm Calm - N/A   Partly Cloudy
10:51 PM 75.0 °F 18.0 °F 12% 29.67 in 10.0 mi Calm Calm - N/A   Partly Cloudy
11:51 PM 73.9 °F 19.0 °F 13% 29.70 in 10.0 mi WSW 5.8 mph - N/A   Partly Cloudy